星链-4544 (STARLINK-4544 )

导读 | 豆包AI

STARLINK-4544是美国太空探索技术公司(SpaceX)星链卫星互联网项目的成员,于2022年8月10日发射升空。它是星链低轨卫星星座部署的一环,运行在近地轨道,主要任务是为全球范围用户提供高速卫星互联网接入服务,推进星链星座全球组网进程。

基本信息
目录编号:
53394
目录名称:
STARLINK-4544
国际标识:
2022-097G
轨道中心:
EARTH
卫星名称:
星链-4544
卫星全名:
星链-4544 (STARLINK-4544 )
卫星状态:
在轨 (已飞行1359 天)
发射日期:
2022-08-10 UTC
国别 :
美国 (US)
星等 :
--
轨道信息
数据来源 国际轨道数据
星历时间: 2026-04-30T09:21:37+0800
16小时前
查看轨道信息
半长轴: 6917.882km
偏心率: 0.000143
轨道倾角: 53.218°
近地点辐角 87.761°
升交点赤经 243.134°
平近点角 272.355°
近地点: 538.755km
远地点: 540.735km
周期: 95.438分钟
每日圈数: 15.088397
详细信息
固有亮度:
5
最大亮度:
2.5
卫星平台:
Starlink v1.5
覆盖范围:
全球
运营商:
太空探索技术公司
运营商所在国:
美国
制造商(研发单位):
太空探索技术公司
制造商所在国:
美国
使用方式:
暂无
卫星简介
星链(Starlink)计划是由太空探索技术公司(SpaceX)提出的一个巨型低轨卫星互联网星座项目,计划在2019年至2024年间在太空搭建由约1.2万颗卫星组成的“星链”网络,其中1584颗将部署在地球上空550千米处的近地轨道,并从2020年开始工作。该卫星仍在工作。
2D轨道图
3D轨道图
轨道高度分析图
轨道倾角分析图
轨道综合分析图
查看轨道综合分析图